Year,Month,Day,Hour,Minute,Value (Times are PST for temperature in C)
2009,04,23,00,00,5.30
2009,04,23,00,01,5.30
2009,04,23,00,02,5.30
2009,04,23,00,03,5.20
2009,04,23,00,04,5.20
2009,04,23,00,05,5.20
2009,04,23,00,06,5.30
2009,04,23,00,07,5.20
2009,04,23,00,08,5.20
2009,04,23,00,09,5.20
2009,04,23,00,10,5.30
2009,04,23,00,11,5.30
2009,04,23,00,12,5.30
2009,04,23,00,13,5.30
2009,04,23,00,14,5.30
2009,04,23,00,15,5.30
2009,04,23,00,16,5.30
2009,04,23,00,17,5.40
2009,04,23,00,18,5.40
2009,04,23,00,19,5.40
2009,04,23,00,20,5.40
2009,04,23,00,21,5.40
2009,04,23,00,22,5.40
2009,04,23,00,23,5.40
2009,04,23,00,24,5.40
2009,04,23,00,25,5.40
2009,04,23,00,26,5.40
2009,04,23,00,27,5.40
2009,04,23,00,28,5.40
2009,04,23,00,29,5.40
2009,04,23,00,30,5.40
2009,04,23,00,31,5.30
2009,04,23,00,32,5.30
2009,04,23,00,33,5.30
2009,04,23,00,34,5.30
2009,04,23,00,35,5.30
2009,04,23,00,36,5.20
2009,04,23,00,37,5.20
2009,04,23,00,38,5.20
2009,04,23,00,39,5.10
2009,04,23,00,40,5.10
2009,04,23,00,41,5.10
2009,04,23,00,42,5.10
2009,04,23,00,43,5.00
2009,04,23,00,44,5.00
2009,04,23,00,45,5.00
2009,04,23,00,46,4.90
2009,04,23,00,47,4.90
2009,04,23,00,48,4.90
2009,04,23,00,49,4.80
2009,04,23,00,50,4.80
2009,04,23,00,51,4.80
2009,04,23,00,52,4.70
2009,04,23,00,53,4.70
2009,04,23,00,54,4.60
2009,04,23,00,55,4.60
2009,04,23,00,56,4.50
2009,04,23,00,57,4.50
2009,04,23,00,58,4.40
2009,04,23,00,59,4.30
2009,04,23,01,00,4.30
2009,04,23,01,01,4.30
2009,04,23,01,02,4.30
2009,04,23,01,03,4.20
2009,04,23,01,04,4.20
2009,04,23,01,05,4.20
2009,04,23,01,06,4.20
2009,04,23,01,07,4.10
2009,04,23,01,08,4.10
2009,04,23,01,09,4.10
2009,04,23,01,10,4.10
2009,04,23,01,11,4.00
2009,04,23,01,12,3.90
2009,04,23,01,13,3.90
2009,04,23,01,14,3.90
2009,04,23,01,15,3.80
2009,04,23,01,16,3.80
2009,04,23,01,17,3.80
2009,04,23,01,18,3.80
2009,04,23,01,19,3.80
2009,04,23,01,20,3.80
2009,04,23,01,21,3.80
2009,04,23,01,22,3.80
2009,04,23,01,23,3.80
2009,04,23,01,24,3.80
2009,04,23,01,25,3.80
2009,04,23,01,26,3.80
2009,04,23,01,27,3.80
2009,04,23,01,28,3.80
2009,04,23,01,29,3.80
2009,04,23,01,30,3.80
2009,04,23,01,31,3.80
2009,04,23,01,32,3.90
2009,04,23,01,33,3.90
2009,04,23,01,34,3.90
2009,04,23,01,35,3.90
2009,04,23,01,36,3.90
2009,04,23,01,37,3.90
2009,04,23,01,38,3.90
2009,04,23,01,39,3.90
2009,04,23,01,40,3.90
2009,04,23,01,41,4.00
2009,04,23,01,42,4.00
2009,04,23,01,43,4.00
2009,04,23,01,44,4.00
2009,04,23,01,45,4.10
2009,04,23,01,46,4.10
2009,04,23,01,47,4.10
2009,04,23,01,48,4.10
2009,04,23,01,49,4.00
2009,04,23,01,50,4.00
2009,04,23,01,51,4.10
2009,04,23,01,52,4.10
2009,04,23,01,53,4.10
2009,04,23,01,54,4.10
2009,04,23,01,55,4.10
2009,04,23,01,56,4.10
2009,04,23,01,57,4.10
2009,04,23,01,58,4.10
2009,04,23,01,59,4.10
2009,04,23,02,00,4.10
2009,04,23,02,01,4.10
2009,04,23,02,02,4.10
2009,04,23,02,03,4.10
2009,04,23,02,04,4.10
2009,04,23,02,05,4.10
2009,04,23,02,06,4.10
2009,04,23,02,07,4.20
2009,04,23,02,08,4.20
2009,04,23,02,09,4.20
2009,04,23,02,10,4.30
2009,04,23,02,11,4.30
2009,04,23,02,12,4.30
2009,04,23,02,13,4.30
2009,04,23,02,14,4.40
2009,04,23,02,15,4.40
2009,04,23,02,16,4.40
2009,04,23,02,17,4.40
2009,04,23,02,18,4.40
2009,04,23,02,19,4.40
2009,04,23,02,20,4.40
2009,04,23,02,21,4.30
2009,04,23,02,22,4.30
2009,04,23,02,23,4.30
2009,04,23,02,24,4.30
2009,04,23,02,25,4.20
2009,04,23,02,26,4.20
2009,04,23,02,27,4.20
2009,04,23,02,28,4.20
2009,04,23,02,29,4.20
2009,04,23,02,30,4.20
2009,04,23,02,31,4.10
2009,04,23,02,32,4.10
2009,04,23,02,33,4.10
2009,04,23,02,34,4.10
2009,04,23,02,35,4.00
2009,04,23,02,36,4.00
2009,04,23,02,37,4.00
2009,04,23,02,38,4.00
2009,04,23,02,39,4.00
2009,04,23,02,40,4.00
2009,04,23,02,41,4.00
2009,04,23,02,42,4.00
2009,04,23,02,43,4.00
2009,04,23,02,44,4.00
2009,04,23,02,45,4.10
2009,04,23,02,46,4.20
2009,04,23,02,47,4.30
2009,04,23,02,48,4.40
2009,04,23,02,49,4.50
2009,04,23,02,50,4.60
2009,04,23,02,51,4.70
2009,04,23,02,52,4.80
2009,04,23,02,53,5.00
2009,04,23,02,54,5.10
2009,04,23,02,55,5.20
2009,04,23,02,56,5.30
2009,04,23,02,57,5.40
2009,04,23,02,58,5.40
2009,04,23,02,59,5.50
2009,04,23,03,00,5.60
2009,04,23,03,01,5.60
2009,04,23,03,02,5.70
2009,04,23,03,03,5.70
2009,04,23,03,04,5.70
2009,04,23,03,05,5.80
2009,04,23,03,06,5.80
2009,04,23,03,07,5.80
2009,04,23,03,08,5.80
2009,04,23,03,09,5.80
2009,04,23,03,10,5.90
2009,04,23,03,11,5.90
2009,04,23,03,12,5.90
2009,04,23,03,13,5.90
2009,04,23,03,14,5.90
2009,04,23,03,15,5.90
2009,04,23,03,16,5.90
2009,04,23,03,17,5.90
2009,04,23,03,18,5.90
2009,04,23,03,19,5.90
2009,04,23,03,20,5.90
2009,04,23,03,21,5.90
2009,04,23,03,22,5.90
2009,04,23,03,23,5.90
2009,04,23,03,24,5.90
2009,04,23,03,25,5.90
2009,04,23,03,26,5.90
2009,04,23,03,27,5.90
2009,04,23,03,28,5.90
2009,04,23,03,29,5.90
2009,04,23,03,30,5.90
2009,04,23,03,31,5.90
2009,04,23,04,02,5.90
2009,04,23,04,03,5.90
2009,04,23,04,04,5.80
2009,04,23,04,05,5.80
2009,04,23,04,06,5.80
2009,04,23,04,07,5.80
2009,04,23,04,08,5.80
2009,04,23,04,09,5.80
2009,04,23,04,10,5.80
2009,04,23,04,11,5.80
2009,04,23,04,12,5.80
2009,04,23,04,13,5.80
2009,04,23,04,14,5.80
2009,04,23,04,15,5.80
2009,04,23,04,16,5.80
2009,04,23,04,17,5.70
2009,04,23,04,18,5.70
2009,04,23,04,19,5.70
2009,04,23,04,20,5.70
2009,04,23,04,21,5.70
2009,04,23,04,22,5.70
2009,04,23,04,23,5.70
2009,04,23,04,24,5.70
2009,04,23,04,25,5.70
2009,04,23,04,26,5.70
2009,04,23,04,27,5.60
2009,04,23,04,28,5.60
2009,04,23,04,29,5.60
2009,04,23,04,30,5.60
2009,04,23,04,31,5.60
2009,04,23,04,32,5.60
2009,04,23,04,33,5.60
2009,04,23,04,34,5.60
2009,04,23,04,35,5.60
2009,04,23,04,36,5.60
2009,04,23,04,37,5.60
2009,04,23,04,38,5.60
2009,04,23,04,39,5.60
2009,04,23,04,40,5.60
2009,04,23,04,41,5.60
2009,04,23,04,42,5.60
2009,04,23,04,43,5.50
2009,04,23,04,44,5.50
2009,04,23,04,45,5.40
2009,04,23,04,46,5.40
2009,04,23,04,47,5.40
2009,04,23,04,48,5.30
2009,04,23,04,49,5.30
2009,04,23,04,50,5.30
2009,04,23,04,51,5.30
2009,04,23,04,52,5.20
2009,04,23,04,53,5.20
2009,04,23,04,54,5.20
2009,04,23,04,55,5.20
2009,04,23,04,56,5.10
2009,04,23,04,57,5.10
2009,04,23,04,58,5.10
2009,04,23,04,59,5.00
2009,04,23,05,00,5.00
2009,04,23,05,01,4.90
2009,04,23,05,02,4.90
2009,04,23,05,03,4.90
2009,04,23,05,04,4.80
2009,04,23,05,05,4.80
2009,04,23,05,06,4.70
2009,04,23,05,07,4.70
2009,04,23,05,08,4.60
2009,04,23,05,09,4.50
2009,04,23,05,10,4.50
2009,04,23,05,11,4.40
2009,04,23,05,12,4.40
2009,04,23,05,13,4.40
2009,04,23,05,14,4.30
2009,04,23,05,15,4.30
2009,04,23,05,16,4.30
2009,04,23,05,17,4.30
2009,04,23,05,18,4.30
2009,04,23,05,19,4.30
2009,04,23,05,20,4.20
2009,04,23,05,21,4.20
2009,04,23,05,22,4.20
2009,04,23,05,23,4.20
2009,04,23,05,24,4.20
2009,04,23,05,25,4.20
2009,04,23,05,26,4.10
2009,04,23,05,27,4.10
2009,04,23,05,28,4.10
2009,04,23,05,29,4.10
2009,04,23,05,30,4.10
2009,04,23,05,31,4.10
2009,04,23,05,32,4.10
2009,04,23,05,33,4.10
2009,04,23,05,34,4.10
2009,04,23,05,35,4.10
2009,04,23,05,36,4.10
2009,04,23,05,37,4.10
2009,04,23,05,38,4.00
2009,04,23,05,39,4.00
2009,04,23,05,40,4.00
2009,04,23,05,41,4.00
2009,04,23,05,42,3.90
2009,04,23,05,43,3.90
2009,04,23,05,44,3.90
2009,04,23,05,45,3.90
2009,04,23,05,46,3.90
2009,04,23,05,47,3.90
2009,04,23,05,48,3.90
2009,04,23,05,49,3.90
2009,04,23,05,50,3.90
2009,04,23,05,51,3.80
2009,04,23,05,52,3.80
2009,04,23,05,53,3.80
2009,04,23,05,54,3.80
2009,04,23,05,55,3.80
2009,04,23,05,56,3.80
2009,04,23,05,57,3.80
2009,04,23,05,58,3.80
2009,04,23,05,59,3.80
2009,04,23,06,00,3.80
2009,04,23,06,01,3.80
2009,04,23,06,02,3.80
2009,04,23,06,03,3.80
2009,04,23,06,04,3.80
2009,04,23,06,05,3.70
2009,04,23,06,06,3.70
2009,04,23,06,07,3.70
2009,04,23,06,08,3.70
2009,04,23,06,09,3.70
2009,04,23,06,10,3.70
2009,04,23,06,11,3.70
2009,04,23,06,12,3.70
2009,04,23,06,13,3.70
2009,04,23,06,14,3.70
2009,04,23,06,15,3.70
2009,04,23,06,16,3.70
2009,04,23,06,17,3.70
2009,04,23,06,18,3.70
2009,04,23,06,19,3.70
2009,04,23,06,20,3.70
2009,04,23,06,21,3.70
2009,04,23,06,22,3.70
2009,04,23,06,23,3.70
2009,04,23,06,24,3.70
2009,04,23,06,25,3.70
2009,04,23,06,26,3.70
2009,04,23,06,27,3.70
2009,04,23,06,28,3.70
2009,04,23,06,29,3.70
2009,04,23,06,30,3.70
2009,04,23,06,31,3.70
2009,04,23,06,32,3.70
2009,04,23,06,33,3.70
2009,04,23,06,34,3.70
2009,04,23,06,35,3.70
2009,04,23,06,36,3.80
2009,04,23,06,37,3.80
2009,04,23,06,38,3.80
2009,04,23,06,39,3.80
2009,04,23,06,40,3.80
2009,04,23,06,41,3.80
2009,04,23,06,42,3.80
2009,04,23,06,43,3.80
2009,04,23,06,44,3.80
2009,04,23,06,45,3.80
2009,04,23,06,46,3.80
2009,04,23,06,47,3.90
2009,04,23,06,48,3.90
2009,04,23,06,49,3.90
2009,04,23,06,50,3.90
2009,04,23,06,51,3.90
2009,04,23,06,52,3.90
2009,04,23,06,53,3.90
2009,04,23,06,54,3.90
2009,04,23,06,55,3.90
2009,04,23,06,56,3.90
2009,04,23,06,57,3.90
2009,04,23,06,58,3.90
2009,04,23,06,59,4.00
2009,04,23,07,00,4.00
2009,04,23,07,01,4.10
2009,04,23,07,02,4.10
2009,04,23,07,03,4.10
2009,04,23,07,04,4.20
2009,04,23,07,05,4.20
2009,04,23,07,06,4.30
2009,04,23,07,07,4.30
2009,04,23,07,08,4.30
2009,04,23,07,09,4.40
2009,04,23,07,10,4.40
2009,04,23,07,11,4.50
2009,04,23,07,12,4.50
2009,04,23,07,13,4.60
2009,04,23,07,14,4.60
2009,04,23,07,15,4.70
2009,04,23,07,16,4.70
2009,04,23,07,17,4.80
2009,04,23,07,18,4.80
2009,04,23,07,19,4.90
2009,04,23,07,20,4.90
2009,04,23,07,21,5.00
2009,04,23,07,22,5.10
2009,04,23,07,23,5.10
2009,04,23,07,24,5.20
2009,04,23,07,25,5.20
2009,04,23,07,26,5.30
2009,04,23,07,27,5.40
2009,04,23,07,28,5.40
2009,04,23,07,29,5.50
2009,04,23,07,30,5.60
2009,04,23,07,31,5.60
2009,04,23,07,32,5.70
2009,04,23,07,33,5.70
2009,04,23,07,34,5.80
2009,04,23,07,35,5.80
2009,04,23,07,36,5.80
2009,04,23,07,37,5.90
2009,04,23,07,38,5.90
2009,04,23,07,39,5.90
2009,04,23,07,40,6.00
2009,04,23,07,41,6.00
2009,04,23,07,42,6.10
2009,04,23,07,43,6.10
2009,04,23,07,44,6.10
2009,04,23,07,45,6.10
2009,04,23,07,46,6.10
2009,04,23,07,47,6.20
2009,04,23,07,48,6.20
2009,04,23,07,49,6.30
2009,04,23,07,50,6.30
2009,04,23,07,51,6.40
2009,04,23,07,52,6.50
2009,04,23,07,53,6.50
2009,04,23,07,54,6.60
2009,04,23,07,55,6.60
2009,04,23,07,56,6.60
2009,04,23,07,57,6.60
2009,04,23,07,58,6.70
2009,04,23,07,59,6.70
2009,04,23,08,00,6.70
2009,04,23,08,01,6.80
2009,04,23,08,02,6.80
2009,04,23,08,03,6.80
2009,04,23,08,04,6.90
2009,04,23,08,05,6.90
2009,04,23,08,06,6.90
2009,04,23,08,07,6.90
2009,04,23,08,08,6.90
2009,04,23,08,09,6.90
2009,04,23,08,10,6.90
2009,04,23,08,11,6.90
2009,04,23,08,12,7.00
2009,04,23,08,13,7.00
2009,04,23,08,14,7.00
2009,04,23,08,15,6.90
2009,04,23,08,16,6.90
2009,04,23,08,17,6.80
2009,04,23,08,18,6.80
2009,04,23,08,19,6.80
2009,04,23,08,20,6.80
2009,04,23,08,21,6.80
2009,04,23,08,22,6.90
2009,04,23,08,23,6.90
2009,04,23,08,24,7.00
2009,04,23,08,25,7.10
2009,04,23,08,26,7.20
2009,04,23,08,27,7.20
2009,04,23,08,28,7.20
2009,04,23,08,29,7.20
2009,04,23,08,30,7.30
2009,04,23,08,31,7.30
2009,04,23,08,32,7.40
2009,04,23,08,33,7.40
2009,04,23,08,34,7.40
2009,04,23,08,35,7.40
2009,04,23,08,36,7.40
2009,04,23,08,37,7.30
2009,04,23,08,38,7.30
2009,04,23,08,39,7.30
2009,04,23,08,40,7.30
2009,04,23,08,41,7.20
2009,04,23,08,42,7.20
2009,04,23,08,43,7.20
2009,04,23,08,44,7.20
2009,04,23,08,45,7.10
2009,04,23,08,46,7.10
2009,04,23,08,47,7.10
2009,04,23,08,48,7.10
2009,04,23,08,49,7.20
2009,04,23,08,50,7.20
2009,04,23,08,51,7.20
2009,04,23,08,52,7.30
2009,04,23,08,53,7.30
2009,04,23,08,54,7.30
2009,04,23,08,55,7.40
2009,04,23,08,56,7.40
2009,04,23,08,57,7.50
2009,04,23,08,58,7.50
2009,04,23,08,59,7.60
2009,04,23,09,00,7.60
2009,04,23,09,01,7.60
2009,04,23,09,02,7.70
2009,04,23,09,03,7.70
2009,04,23,09,04,7.80
2009,04,23,09,05,7.90
2009,04,23,09,06,8.00
2009,04,23,09,07,8.10
2009,04,23,09,08,8.20
2009,04,23,09,09,8.30
2009,04,23,09,10,8.30
2009,04,23,09,11,8.30
2009,04,23,09,12,8.30
2009,04,23,09,13,8.30
2009,04,23,09,14,8.30
2009,04,23,09,15,8.30
2009,04,23,09,16,8.20
2009,04,23,09,17,8.20
2009,04,23,09,18,8.20
2009,04,23,09,19,8.20
2009,04,23,09,20,8.20
2009,04,23,09,21,8.20
2009,04,23,09,22,8.20
2009,04,23,09,23,8.20
2009,04,23,09,24,8.30
2009,04,23,09,25,8.40
2009,04,23,09,26,8.50
2009,04,23,09,27,8.60
2009,04,23,09,28,8.70
2009,04,23,09,29,8.80
2009,04,23,09,30,8.80
2009,04,23,09,31,8.90
2009,04,23,09,32,8.90
2009,04,23,09,33,8.90
2009,04,23,09,34,8.90
2009,04,23,09,35,8.90
2009,04,23,09,36,8.90
2009,04,23,09,37,8.90
2009,04,23,09,38,8.90
2009,04,23,09,39,9.00
2009,04,23,09,40,9.00
2009,04,23,09,41,9.00
2009,04,23,09,42,9.00
2009,04,23,09,43,9.10
2009,04,23,09,44,9.20
2009,04,23,09,45,9.20
2009,04,23,09,46,9.30
2009,04,23,09,47,9.30
2009,04,23,09,48,9.30
2009,04,23,09,49,9.30
2009,04,23,09,50,9.30
2009,04,23,09,51,9.30
2009,04,23,09,52,9.20
2009,04,23,09,53,9.20
2009,04,23,09,54,9.20
2009,04,23,09,55,9.20
2009,04,23,09,56,9.20
2009,04,23,09,57,9.20
2009,04,23,09,58,9.30
2009,04,23,09,59,9.30
2009,04,23,10,00,9.40
2009,04,23,10,01,9.50
2009,04,23,10,02,9.60
2009,04,23,10,03,9.60
2009,04,23,10,04,9.60
2009,04,23,10,05,9.60
2009,04,23,10,06,9.60
2009,04,23,10,07,9.60
2009,04,23,10,08,9.60
2009,04,23,10,09,9.60
2009,04,23,10,10,9.70
2009,04,23,10,11,9.80
2009,04,23,10,12,9.90
2009,04,23,10,13,10.00
2009,04,23,10,14,10.00
2009,04,23,10,15,10.10
2009,04,23,10,16,10.10
2009,04,23,10,17,10.10
2009,04,23,10,18,10.10
2009,04,23,10,19,10.10
2009,04,23,10,20,10.20
2009,04,23,10,21,10.30
2009,04,23,10,22,10.30
2009,04,23,10,23,10.30
2009,04,23,10,24,10.30
2009,04,23,10,25,10.40
2009,04,23,10,26,10.50
2009,04,23,10,27,10.40
2009,04,23,10,28,10.50
2009,04,23,10,29,10.60
2009,04,23,10,30,10.50
2009,04,23,10,31,10.50
2009,04,23,10,32,10.60
2009,04,23,10,33,10.70
2009,04,23,10,34,10.80
2009,04,23,10,35,11.00
2009,04,23,10,36,11.20
2009,04,23,10,37,11.30
2009,04,23,10,38,11.40
2009,04,23,10,39,11.50
2009,04,23,10,40,11.60
2009,04,23,10,41,11.70
2009,04,23,10,42,11.70
2009,04,23,10,43,11.70
2009,04,23,10,44,11.60
2009,04,23,10,45,11.60
2009,04,23,10,46,11.50
2009,04,23,10,47,11.50
2009,04,23,10,48,11.50
2009,04,23,10,49,11.60
2009,04,23,10,50,11.60
2009,04,23,10,51,11.60
2009,04,23,10,52,11.50
2009,04,23,10,53,11.60
2009,04,23,10,54,11.60
2009,04,23,10,55,11.60
2009,04,23,10,56,11.70
2009,04,23,10,57,11.60
2009,04,23,10,58,11.50
2009,04,23,10,59,11.50
2009,04,23,11,00,11.50
2009,04,23,11,01,11.60
2009,04,23,11,02,11.60
2009,04,23,11,03,11.60
2009,04,23,11,04,11.60
2009,04,23,11,05,11.60
2009,04,23,11,06,11.50
2009,04,23,11,07,11.50
2009,04,23,11,08,11.40
2009,04,23,11,09,11.40
2009,04,23,11,10,11.40
2009,04,23,11,11,11.40
2009,04,23,11,12,11.30
2009,04,23,11,13,11.30
2009,04,23,11,14,11.20
2009,04,23,11,15,11.20
2009,04,23,11,16,11.10
2009,04,23,11,17,10.90
2009,04,23,11,18,10.70
2009,04,23,11,19,10.60
2009,04,23,11,20,10.60
2009,04,23,11,21,10.60
2009,04,23,11,22,10.60
2009,04,23,11,23,10.60
2009,04,23,11,24,10.50
2009,04,23,11,25,10.30
2009,04,23,11,26,10.30
2009,04,23,11,27,10.30
2009,04,23,11,28,10.30
2009,04,23,11,29,10.20
2009,04,23,11,30,10.10
2009,04,23,11,31,10.00
2009,04,23,11,32,9.90
2009,04,23,11,33,9.90
2009,04,23,11,34,9.90
2009,04,23,11,35,10.00
2009,04,23,11,36,10.00
2009,04,23,11,37,10.20
2009,04,23,11,38,10.30
2009,04,23,11,39,10.40
2009,04,23,11,40,10.50
2009,04,23,11,41,10.60
2009,04,23,11,42,10.60
2009,04,23,11,43,10.70
2009,04,23,11,44,10.70
2009,04,23,11,45,10.70
2009,04,23,11,46,10.70
2009,04,23,11,47,10.80
2009,04,23,11,48,10.80
2009,04,23,11,49,10.80
2009,04,23,11,50,10.70
2009,04,23,11,51,10.70
2009,04,23,11,52,10.70
2009,04,23,11,53,10.80
2009,04,23,11,54,10.80
2009,04,23,11,55,10.70
2009,04,23,11,56,10.70
2009,04,23,11,57,10.70
2009,04,23,11,58,10.70
2009,04,23,11,59,10.70
2009,04,23,12,00,10.70
2009,04,23,12,01,10.70
2009,04,23,12,02,10.80
2009,04,23,12,03,10.80
2009,04,23,12,04,10.80
2009,04,23,12,05,10.70
2009,04,23,12,06,10.60
2009,04,23,12,07,10.50
2009,04,23,12,08,10.40
2009,04,23,12,09,10.30
2009,04,23,12,10,10.20
2009,04,23,12,11,10.10
2009,04,23,12,12,10.10
2009,04,23,12,13,10.10
2009,04,23,12,14,10.20
2009,04,23,12,15,10.40
2009,04,23,12,16,10.50
2009,04,23,12,17,10.80
2009,04,23,12,18,11.00
2009,04,23,12,19,11.30
2009,04,23,12,20,11.60
2009,04,23,12,21,11.80
2009,04,23,12,22,12.10
2009,04,23,12,23,12.30
2009,04,23,12,24,12.50
2009,04,23,12,25,12.60
2009,04,23,12,26,12.70
2009,04,23,12,27,12.70
2009,04,23,12,28,12.60
2009,04,23,12,29,12.50
2009,04,23,12,30,12.50
2009,04,23,12,31,12.40
2009,04,23,12,32,12.40
2009,04,23,12,33,12.30
2009,04,23,12,34,12.10
2009,04,23,12,35,12.00
2009,04,23,12,36,11.90
2009,04,23,12,37,11.80
2009,04,23,12,38,11.70
2009,04,23,12,39,11.60
2009,04,23,12,40,11.50
2009,04,23,12,41,11.40
2009,04,23,12,42,11.30
2009,04,23,12,43,11.20
2009,04,23,12,44,11.20
2009,04,23,12,45,11.20
2009,04,23,12,46,11.20
2009,04,23,12,47,11.20
2009,04,23,12,48,11.20
2009,04,23,12,49,11.20
2009,04,23,12,50,11.20
2009,04,23,12,51,11.30
2009,04,23,12,52,11.30
2009,04,23,12,53,11.40
2009,04,23,12,54,11.50
2009,04,23,12,55,11.60
2009,04,23,12,56,11.70
2009,04,23,12,57,11.70
2009,04,23,12,58,11.90
2009,04,23,12,59,12.00
2009,04,23,13,00,12.10
2009,04,23,13,01,12.20
2009,04,23,13,02,12.20
2009,04,23,13,03,12.20
2009,04,23,13,04,12.10
2009,04,23,13,05,11.90
2009,04,23,13,06,11.60
2009,04,23,13,07,11.50
2009,04,23,13,08,11.40
2009,04,23,13,09,11.30
2009,04,23,13,10,11.30
2009,04,23,13,11,11.30
2009,04,23,13,12,11.40
2009,04,23,13,13,11.50
2009,04,23,13,14,11.60
2009,04,23,13,15,11.60
2009,04,23,13,16,11.70
2009,04,23,13,17,11.80
2009,04,23,13,18,11.80
2009,04,23,13,19,11.80
2009,04,23,13,20,11.80
2009,04,23,13,21,11.80
2009,04,23,13,22,11.90
2009,04,23,13,23,11.90
2009,04,23,13,24,12.00
2009,04,23,13,25,12.00
2009,04,23,13,26,12.10
2009,04,23,13,27,12.10
2009,04,23,13,28,12.20
2009,04,23,13,29,12.20
2009,04,23,13,30,12.10
2009,04,23,13,31,12.00
2009,04,23,13,32,11.80
2009,04,23,13,33,11.70
2009,04,23,13,34,11.70
2009,04,23,13,35,11.50
2009,04,23,13,36,11.40
2009,04,23,13,37,11.30
2009,04,23,13,38,11.20
2009,04,23,13,39,11.10
2009,04,23,13,40,10.90
2009,04,23,13,41,10.80
2009,04,23,13,42,10.70
2009,04,23,13,43,10.60
2009,04,23,13,44,10.50
2009,04,23,13,45,10.50
2009,04,23,13,46,10.50
2009,04,23,13,47,10.60
2009,04,23,13,48,10.70
2009,04,23,13,49,10.90
2009,04,23,13,50,11.00
2009,04,23,13,51,11.10
2009,04,23,13,52,11.20
2009,04,23,13,53,11.20
2009,04,23,13,54,11.30
2009,04,23,13,55,11.30
2009,04,23,13,56,11.30
2009,04,23,13,57,11.30
2009,04,23,13,58,11.20
2009,04,23,13,59,11.20
2009,04,23,14,00,11.20
2009,04,23,14,01,11.20
2009,04,23,14,02,11.20
2009,04,23,14,03,11.20
2009,04,23,14,04,11.20
2009,04,23,14,05,11.30
2009,04,23,14,06,11.40
2009,04,23,14,07,11.50
2009,04,23,14,08,11.60
2009,04,23,14,09,11.60
2009,04,23,14,10,11.50
2009,04,23,14,11,11.40
2009,04,23,14,12,11.30
2009,04,23,14,13,11.30
2009,04,23,14,14,11.30
2009,04,23,14,15,11.30
2009,04,23,14,16,11.30
2009,04,23,14,17,11.30
2009,04,23,14,18,11.30
2009,04,23,14,19,11.30
2009,04,23,14,20,11.40
2009,04,23,14,21,11.50
2009,04,23,14,22,11.60
2009,04,23,14,23,11.70
2009,04,23,14,24,11.70
2009,04,23,14,25,11.60
2009,04,23,14,26,11.50
2009,04,23,14,27,11.40
2009,04,23,14,28,11.30
2009,04,23,14,29,11.20
2009,04,23,14,30,11.10
2009,04,23,14,31,11.10
2009,04,23,14,32,11.00
2009,04,23,14,33,11.10
2009,04,23,14,34,11.10
2009,04,23,14,35,11.20
2009,04,23,14,36,11.30
2009,04,23,14,37,11.50
2009,04,23,14,38,11.60
2009,04,23,14,39,11.70
2009,04,23,14,40,11.70
2009,04,23,14,41,11.70
2009,04,23,14,42,11.80
2009,04,23,14,43,11.70
2009,04,23,14,44,11.70
2009,04,23,14,45,11.60
2009,04,23,14,46,11.60
2009,04,23,14,47,11.60
2009,04,23,14,48,11.60
2009,04,23,14,49,11.50
2009,04,23,14,50,11.50
2009,04,23,14,51,11.30
2009,04,23,14,52,11.20
2009,04,23,14,53,11.10
2009,04,23,14,54,11.10
2009,04,23,14,55,11.20
2009,04,23,14,56,11.40
2009,04,23,14,57,11.60
2009,04,23,14,58,11.80
2009,04,23,14,59,12.00
2009,04,23,15,00,12.20
2009,04,23,15,01,12.40
2009,04,23,15,02,12.50
2009,04,23,15,03,12.60
2009,04,23,15,04,12.60
2009,04,23,15,05,12.60
2009,04,23,15,06,12.60
2009,04,23,15,07,12.50
2009,04,23,15,08,12.50
2009,04,23,15,09,12.40
2009,04,23,15,10,12.30
2009,04,23,15,11,12.20
2009,04,23,15,12,12.20
2009,04,23,15,13,12.20
2009,04,23,15,14,12.30
2009,04,23,15,15,12.30
2009,04,23,15,16,12.40
2009,04,23,15,17,12.40
2009,04,23,15,18,12.50
2009,04,23,15,19,12.40
2009,04,23,15,20,12.40
2009,04,23,15,21,12.40
2009,04,23,15,22,12.30
2009,04,23,15,23,12.20
2009,04,23,15,24,12.20
2009,04,23,15,25,12.20
2009,04,23,15,26,12.20
2009,04,23,15,27,12.30
2009,04,23,15,28,12.30
2009,04,23,15,29,12.30
2009,04,23,15,30,12.30
2009,04,23,15,31,12.30
2009,04,23,15,32,12.30
2009,04,23,15,33,12.20
2009,04,23,15,34,12.30
2009,04,23,15,35,12.40
2009,04,23,15,36,12.50
2009,04,23,15,37,12.60
2009,04,23,15,38,12.50
2009,04,23,15,39,12.50
2009,04,23,15,40,12.50
2009,04,23,15,41,12.40
2009,04,23,15,42,12.40
2009,04,23,15,43,12.40
2009,04,23,15,44,12.50
2009,04,23,15,45,12.50
2009,04,23,15,46,12.60
2009,04,23,15,47,12.60
2009,04,23,15,48,12.60
2009,04,23,15,49,12.60
2009,04,23,15,50,12.60
2009,04,23,15,51,12.60
2009,04,23,15,52,12.60
2009,04,23,15,53,12.60
2009,04,23,15,54,12.60
2009,04,23,15,55,12.60
2009,04,23,15,56,12.60
2009,04,23,15,57,12.60
2009,04,23,15,58,12.60
2009,04,23,15,59,12.60
2009,04,23,16,00,12.70
2009,04,23,16,01,12.70
2009,04,23,16,02,12.70
2009,04,23,16,03,12.70
2009,04,23,16,04,12.70
2009,04,23,16,05,12.70
2009,04,23,16,06,12.70
2009,04,23,16,07,12.70
2009,04,23,16,08,12.60
2009,04,23,16,09,12.60
2009,04,23,16,10,12.60
2009,04,23,16,11,12.60
2009,04,23,16,12,12.70
2009,04,23,16,13,12.70
2009,04,23,16,14,12.70
2009,04,23,16,15,12.80
2009,04,23,16,16,12.80
2009,04,23,16,17,12.80
2009,04,23,16,18,12.80
2009,04,23,16,19,12.80
2009,04,23,16,20,12.80
2009,04,23,16,21,12.80
2009,04,23,16,22,12.80
2009,04,23,16,23,12.80
2009,04,23,16,24,12.70
2009,04,23,16,25,12.80
2009,04,23,16,26,12.80
2009,04,23,16,27,12.90
2009,04,23,16,28,12.90
2009,04,23,16,29,12.80
2009,04,23,16,30,12.70
2009,04,23,16,31,12.70
2009,04,23,16,32,12.60
2009,04,23,16,33,12.60
2009,04,23,16,34,12.60
2009,04,23,16,35,12.60
2009,04,23,16,36,12.60
2009,04,23,16,37,12.70
2009,04,23,16,38,12.70
2009,04,23,16,39,12.70
2009,04,23,16,40,12.80
2009,04,23,16,41,12.90
2009,04,23,16,42,12.80
2009,04,23,16,43,12.80
2009,04,23,16,44,12.80
2009,04,23,16,45,12.80
2009,04,23,16,46,12.80
2009,04,23,16,47,12.80
2009,04,23,16,48,12.80
2009,04,23,16,49,12.80
2009,04,23,16,50,12.80
2009,04,23,16,51,12.90
2009,04,23,16,52,12.90
2009,04,23,16,53,13.00
2009,04,23,16,54,13.10
2009,04,23,16,55,13.10
2009,04,23,16,56,13.20
2009,04,23,16,57,13.30
2009,04,23,16,58,13.30
2009,04,23,16,59,13.40
2009,04,23,17,00,13.40
2009,04,23,17,01,13.50
2009,04,23,17,02,13.40
2009,04,23,17,03,13.40
2009,04,23,17,04,13.30
2009,04,23,17,05,13.20
2009,04,23,17,06,13.00
2009,04,23,17,07,13.00
2009,04,23,17,08,12.90
2009,04,23,17,09,12.90
2009,04,23,17,10,12.90
2009,04,23,17,11,12.90
2009,04,23,17,12,12.90
2009,04,23,17,13,12.90
2009,04,23,17,14,12.90
2009,04,23,17,15,12.80
2009,04,23,17,16,12.80
2009,04,23,17,17,12.70
2009,04,23,17,18,12.70
2009,04,23,17,19,12.80
2009,04,23,17,20,12.80
2009,04,23,17,21,12.80
2009,04,23,17,22,12.80
2009,04,23,17,23,12.80
2009,04,23,17,24,12.80
2009,04,23,17,25,12.80
2009,04,23,17,26,12.80
2009,04,23,17,27,12.80
2009,04,23,17,28,12.80
2009,04,23,17,29,12.80
2009,04,23,17,30,12.70
2009,04,23,17,31,12.70
2009,04,23,17,32,12.70
2009,04,23,17,33,12.70
2009,04,23,17,34,12.70
2009,04,23,17,35,12.80
2009,04,23,17,36,12.70
2009,04,23,17,37,12.70
2009,04,23,17,38,12.80
2009,04,23,17,39,12.80
2009,04,23,17,40,12.80
2009,04,23,17,41,12.80
2009,04,23,17,42,12.80
2009,04,23,17,43,12.80
2009,04,23,17,44,12.80
2009,04,23,17,45,12.80
2009,04,23,17,46,12.80
2009,04,23,17,47,12.80
2009,04,23,17,48,12.70
2009,04,23,17,49,12.70
2009,04,23,17,50,12.70
2009,04,23,17,51,12.70
2009,04,23,17,52,12.70
2009,04,23,17,53,12.70
2009,04,23,17,54,12.70
2009,04,23,17,55,12.70
2009,04,23,17,56,12.70
2009,04,23,17,57,12.70
2009,04,23,17,58,12.70
2009,04,23,17,59,12.70
2009,04,23,18,00,12.60
2009,04,23,18,01,12.60
2009,04,23,18,02,12.60
2009,04,23,18,03,12.60
2009,04,23,18,04,12.60
2009,04,23,18,05,12.60
2009,04,23,18,06,12.50
2009,04,23,18,07,12.50
2009,04,23,18,08,12.50
2009,04,23,18,09,12.60
2009,04,23,18,10,12.60
2009,04,23,18,11,12.60
2009,04,23,18,12,12.60
2009,04,23,18,13,12.60
2009,04,23,18,14,12.60